Regional Weather Roundup
Issued by NWS

Home | Current Version | Previous Version | Text Only | Print | Product List | Glossary On
Versions: 1 2 3 4 5 6 7 8 9 10 11 12 13 14 15 16 17 18 19 20 21 22 23 24 25 26 27
000
ASUS44 KLIX 270713
RWRLA
LOUISIANA WEATHER ROUNDUP
NATIONAL WEATHER SERVICE NEW ORLEANS LA
200 AM CDT MON MAR 27 2017

NOTE: "FAIR" INDICATES FEW OR NO CLOUDS BELOW 12,000 FEET WITH NO
      SIGNIFICANT WEATHER AND/OR OBSTRUCTIONS TO VISIBILITY.
      SKY/WX - SKY CONDITION AND SIGNIFICANT WEATHER.
      TMP - AIR TEMPERATURE.    DP   - DEWPOINT TEMPERATURE.
      RH  - RELATIVE HUMIDITY.  PRES - PRESSURE.
      HX  - HEAT INDEX.         WCI  - WIND CHILL INDEX.

*  THESE STATIONS ARE NOT NWS OR FAA STATIONS AND ARE NOT UNDER
   NWS QUALITY CONTROL.

LAZ040-048-061>063-065-066-069-270800-
SOUTHEAST LOUISIANA

CITY           SKY/WX    TMP DP  RH WIND       PRES   REMARKS
N.O. INTL ARPT MOCLDY    72  69  90 SE12      29.97S
N.O. LAKEFRONT MOCLDY    72  69  90 S10       29.98R
N.O. DOWNTOWN*   N/A     72  68  87 S8        29.98S
RESERVE*       FAIR      70  68  93 SE6       29.97S
SLIDELL        CLOUDY    72  69  90 S9        29.97S
BATON ROUGE    PTCLDY    68  66  93 CALM      29.98R FOG
BOOTHVILLE     CLOUDY    71  71 100 SE10      29.99F
BELLE CHASSE   CLEAR    N/A N/A N/A S10       29.96F
BOGALUSA*      NOT AVBL
GALLIANO*      CLOUDY    73  67  83 S10G16    29.97S
NEW ROADS*       N/A     67  66  96 S3        29.97S
GONZALES*      FAIR      69  67  94 CALM      29.97R
HAMMOND*       CLOUDY    70  66  88 S8        29.97S
HOUMA*         PTCLDY    72  69  90 SE10      29.95F
PORT FOURCHON* MOSUNNY   73  70  88 S13G20    29.97S

$$

LAZ041-044-053-054-270800-
SOUTHWEST LOUISIANA

CITY           SKY/WX    TMP DP  RH WIND       PRES   REMARKS
LAKE CHARLES   CLOUDY    72  69  90 S9        29.93F
LAFAYETTE      PTCLDY    74  68  81 S6        29.95S
PATTERSON      MOCLDY    69  68  96 S5        29.97R
SALT POINT       N/A     70  67  90 VRB5      29.95R
NEW IBERIA     MOCLDY    72  66  81 S13       29.96S
CHENAULT AIRPK CLOUDY    71  69  93 S6        29.94F

$$

LAZ027-028-270800-
CENTRAL LOUISIANA

CITY           SKY/WX    TMP DP  RH WIND       PRES   REMARKS
FORT POLK      CLOUDY    69  69 100 S13       29.91S
ALEXANDRIA INT CLOUDY    67  66  97 SE8       29.91F
ALEXANDRIA     CLOUDY    70  67  90 S7        29.93F

$$

LAZ001-002-270800-
NORTHWEST LOUISIANA

CITY           SKY/WX    TMP DP  RH WIND       PRES   REMARKS
SHREVEPORT     CLOUDY    71  64  78 S14G21    29.85S
BARKSDALE AFB  CLOUDY    69  63  81 S15       29.86S
DTN SHREVEPORT MOCLDY    71  63  75 S14G22    29.86R

$$

LAZ014-016-270800-
NORTHEAST LOUISIANA

CITY           SKY/WX    TMP DP  RH WIND       PRES   REMARKS
MONROE         CLOUDY    69  63  81 S9        29.92F
TALLULAH       CLOUDY    67  63  87 S5        29.95S

$$





USA.gov is the U.S. government's official web portal to all federal, state and local government web resources and services.